• In Hungary
  • List of Countries
  • For 7 days
  • Water Temperature
  • Satellite Maps
  • Weather Map
  • News
  • Weather Widgets
  • user-avatar
    Login

    Hourly Weather Oroszlany

    Today, 21 September, Friday

    Time Temperature Precipitation Wind Pressure Humidity
    00:00 +20°C° 0 mm 1 mps 746 mmHg 56%
    01:00 +19°C° 0 mm 1 mps 746 mmHg 57%
    02:00 +19°C° 0 mm 1 mps 746 mmHg 58%
    03:00 +19°C° 0 mm 1 mps 745 mmHg 59%
    04:00 +19°C° 0 mm 1 mps 745 mmHg 60%
    05:00 +19°C° 0 mm 1 mps 745 mmHg 58%
    06:00 +20°C° 0 mm 1 mps 745 mmHg 57%
    07:00 +19°C° 0 mm 2 mps 745 mmHg 56%
    08:00 +21°C° 0 mm 2 mps 745 mmHg 49%
    09:00 +25°C° 0 mm 3 mps 745 mmHg 43%
    10:00 +27°C° 0 mm 3 mps 745 mmHg 37%
    11:00 +28°C° 0 mm 4 mps 745 mmHg 34%
    12:00 +29°C° 0 mm 4 mps 744 mmHg 32%
    13:00 +30°C° 0 mm 4 mps 744 mmHg 29%
    14:00 +30°C° 0 mm 4 mps 743 mmHg 30%
    15:00 +30°C° 0 mm 3 mps 743 mmHg 30%
    16:00 +30°C° 0 mm 3 mps 742 mmHg 31%
    17:00 +28°C° 0 mm 3 mps 742 mmHg 35%
    18:00 +26°C° 0 mm 2 mps 742 mmHg 39%
    19:00 +24°C° 0 mm 2 mps 742 mmHg 43%
    20:00 +23°C° 0 mm 2 mps 742 mmHg 44%
    21:00 +23°C° 0 mm 2 mps 742 mmHg 46%
    22:00 +21°C° 0 mm 2 mps 743 mmHg 47%
    23:00 +21°C° 0 mm 2 mps 743 mmHg 50%

    Tomorrow, 22 September, Saturday

    Time Temperature Precipitation Wind Pressure Humidity
    00:00 +21°C° 0 mm 1 mps 743 mmHg 52%
    01:00 +21°C° 0 mm 1 mps 743 mmHg 54%
    02:00 +20°C° 0 mm 3 mps 743 mmHg 58%
    03:00 +20°C° 0 mm 4 mps 744 mmHg 62%
    04:00 +20°C° 0 mm 5 mps 744 mmHg 65%
    05:00 +19°C° 0 mm 6 mps 745 mmHg 61%
    06:00 +18°C° 0 mm 7 mps 746 mmHg 56%
    07:00 +17°C° 0 mm 8 mps 746 mmHg 52%
    08:00 +16°C° 0 mm 8 mps 747 mmHg 51%
    09:00 +16°C° 0 mm 8 mps 748 mmHg 51%
    10:00 +15°C° 0 mm 7 mps 748 mmHg 50%
    11:00 +14°C° 0.5 mm 6 mps 749 mmHg 57%
    12:00 +13°C° 0.5 mm 5 mps 749 mmHg 64%
    13:00 +12°C° 0.5 mm 4 mps 749 mmHg 72%
    14:00 +11°C° 0.7 mm 3 mps 749 mmHg 75%
    15:00 +11°C° 0.7 mm 3 mps 749 mmHg 79%
    16:00 +10°C° 0.7 mm 2 mps 749 mmHg 83%
    17:00 +10°C° 0.1 mm 2 mps 750 mmHg 84%
    18:00 +10°C° 0.1 mm 3 mps 750 mmHg 84%
    19:00 +10°C° 0.1 mm 3 mps 750 mmHg 84%
    20:00 +10°C° 0 mm 3 mps 750 mmHg 85%
    21:00 +10°C° 0 mm 3 mps 750 mmHg 86%
    22:00 +10°C° 0 mm 3 mps 751 mmHg 87%
    23:00 +10°C° 0 mm 3 mps 751 mmHg 88%

    Day after tomorrow, 23 September, Sunday

    Time Temperature Precipitation Wind Pressure Humidity
    00:00 +10°C° 0 mm 3 mps 750 mmHg 88%
    01:00 +10°C° 0 mm 3 mps 750 mmHg 89%
    02:00 +10°C° 0 mm 2 mps 750 mmHg 88%
    03:00 +10°C° 0 mm 2 mps 750 mmHg 88%
    04:00 +10°C° 0 mm 2 mps 750 mmHg 87%
    05:00 +10°C° 0 mm 2 mps 750 mmHg 85%
    06:00 +12°C° 0 mm 1 mps 751 mmHg 82%
    07:00 +12°C° 0 mm 1 mps 751 mmHg 80%
    08:00 +13°C° 0 mm 1 mps 751 mmHg 75%
    09:00 +14°C° 0 mm 2 mps 751 mmHg 71%
    10:00 +15°C° 0 mm 2 mps 751 mmHg 66%
    11:00 +16°C° 0 mm 2 mps 750 mmHg 65%
    12:00 +16°C° 0 mm 2 mps 750 mmHg 63%
    13:00 +17°C° 0 mm 2 mps 750 mmHg 61%
    14:00 +18°C° 0 mm 2 mps 749 mmHg 58%
    15:00 +18°C° 0 mm 3 mps 748 mmHg 55%
    16:00 +19°C° 0 mm 3 mps 748 mmHg 52%
    17:00 +18°C° 0 mm 3 mps 748 mmHg 54%
    18:00 +18°C° 0 mm 2 mps 747 mmHg 56%
    19:00 +17°C° 0 mm 2 mps 747 mmHg 58%
    20:00 +16°C° 0 mm 3 mps 746 mmHg 58%
    21:00 +16°C° 0 mm 3 mps 746 mmHg 58%
    22:00 +16°C° 0 mm 3 mps 745 mmHg 57%
    23:00 +15°C° 0 mm 4 mps 744 mmHg 56%

    24 September, Monday

    Time Temperature Precipitation Wind Pressure Humidity
    00:00 +15°C° 0 mm 4 mps 743 mmHg 54%
    01:00 +16°C° 0 mm 5 mps 742 mmHg 53%
    02:00 +16°C° 0 mm 5 mps 741 mmHg 54%
    03:00 +16°C° 0 mm 6 mps 740 mmHg 55%
    04:00 +17°C° 0 mm 6 mps 738 mmHg 57%
    05:00 +19°C° 0 mm 6 mps 738 mmHg 61%
    06:00 +19°C° 0 mm 6 mps 738 mmHg 66%
    07:00 +20°C° 0 mm 6 mps 738 mmHg 71%
    08:00 +20°C° 0.7 mm 7 mps 738 mmHg 70%
    09:00 +20°C° 0.7 mm 7 mps 739 mmHg 70%
    10:00 +18°C° 0.7 mm 8 mps 740 mmHg 70%
    11:00 +18°C° 0.1 mm 10 mps 741 mmHg 60%
    12:00 +18°C° 0.1 mm 12 mps 742 mmHg 49%
    13:00 +18°C° 0.1 mm 14 mps 743 mmHg 39%
    14:00 +17°C° 0 mm 13 mps 744 mmHg 40%
    15:00 +15°C° 0 mm 13 mps 745 mmHg 41%
    16:00 +14°C° 0 mm 13 mps 746 mmHg 42%
    17:00 +13°C° 0 mm 11 mps 747 mmHg 42%
    18:00 +12°C° 0 mm 10 mps 748 mmHg 43%
    19:00 +12°C° 0 mm 9 mps 749 mmHg 44%
    20:00 +11°C° 0 mm 8 mps 749 mmHg 46%
    21:00 +10°C° 0 mm 7 mps 750 mmHg 48%
    22:00 +10°C° 0 mm 5 mps 751 mmHg 50%
    23:00 +9°C° 0 mm 6 mps 752 mmHg 53%

    25 September, Tuesday

    Time Temperature Precipitation Wind Pressure Humidity
    00:00 +9°C° 0 mm 6 mps 752 mmHg 55%
    01:00 +8°C° 0 mm 6 mps 753 mmHg 58%
    02:00 +8°C° 0 mm 6 mps 753 mmHg 60%
    03:00 +8°C° 0 mm 6 mps 754 mmHg 63%
    04:00 +7°C° 0 mm 6 mps 754 mmHg 65%
    05:00 +7°C° 0 mm 6 mps 754 mmHg 63%
    06:00 +7°C° 0 mm 6 mps 755 mmHg 60%
    07:00 +8°C° 0 mm 7 mps 755 mmHg 58%
    08:00 +9°C° 0 mm 7 mps 756 mmHg 51%
    09:00 +10°C° 0 mm 7 mps 756 mmHg 45%
    10:00 +11°C° 0 mm 7 mps 757 mmHg 38%
    11:00 +12°C° 0 mm 7 mps 756 mmHg 36%
    12:00 +14°C° 0 mm 7 mps 756 mmHg 33%
    13:00 +14°C° 0 mm 7 mps 756 mmHg 31%
    14:00 +14°C° 0 mm 7 mps 756 mmHg 31%
    15:00 +14°C° 0 mm 6 mps 756 mmHg 32%
    16:00 +14°C° 0 mm 6 mps 755 mmHg 32%
    17:00 +12°C° 0 mm 5 mps 756 mmHg 37%
    18:00 +11°C° 0 mm 4 mps 756 mmHg 42%
    19:00 +9°C° 0 mm 2 mps 756 mmHg 47%
    20:00 +9°C° 0 mm 2 mps 756 mmHg 49%
    21:00 +9°C° 0 mm 2 mps 756 mmHg 50%
    22:00 +9°C° 0 mm 2 mps 756 mmHg 52%
    23:00 +8°C° 0 mm 3 mps 755 mmHg 54%

    26 September, Wednesday

    Time Temperature Precipitation Wind Pressure Humidity
    00:00 +8°C° 0 mm 3 mps 755 mmHg 56%
    01:00 +8°C° 0 mm 3 mps 754 mmHg 58%
    02:00 +7°C° 0 mm 4 mps 754 mmHg 58%
    03:00 +7°C° 0 mm 5 mps 753 mmHg 58%
    04:00 +8°C° 0 mm 5 mps 753 mmHg 58%
    05:00 +8°C° 0.1 mm 6 mps 753 mmHg 61%
    06:00 +8°C° 0.1 mm 7 mps 753 mmHg 63%
    07:00 +8°C° 0.1 mm 7 mps 753 mmHg 66%
    08:00 +10°C° 0 mm 7 mps 754 mmHg 60%
    09:00 +11°C° 0 mm 8 mps 754 mmHg 53%
    10:00 +13°C° 0 mm 8 mps 754 mmHg 47%
    11:00 +13°C° 0 mm 8 mps 754 mmHg 42%
    12:00 +15°C° 0 mm 7 mps 754 mmHg 38%
    13:00 +16°C° 0 mm 7 mps 754 mmHg 34%
    14:00 +16°C° 0 mm 7 mps 754 mmHg 34%
    15:00 +16°C° 0 mm 6 mps 754 mmHg 35%
    16:00 +16°C° 0 mm 5 mps 754 mmHg 35%
    17:00 +14°C° 0 mm 4 mps 755 mmHg 40%
    18:00 +12°C° 0 mm 3 mps 755 mmHg 45%
    19:00 +12°C° 0 mm 2 mps 755 mmHg 49%
    20:00 +10°C° 0 mm 2 mps 756 mmHg 51%
    21:00 +10°C° 0 mm 2 mps 756 mmHg 53%
    22:00 +10°C° 0 mm 1 mps 756 mmHg 54%
    23:00 +10°C° 0 mm 1 mps 756 mmHg 56%
    Show more